Time,TemperatureF,DewpointF,PressureIn,WindDirection,WindDirectionDegrees,WindSpeedMPH,WindSpeedGustMPH,Humidity,HourlyPrecipIn,Conditions,Clouds,dailyrainin,SoftwareType,DateUTC
2013-01-29 00:01:00,5.0,0.0,-100.00,WSW,258,12.0,17.0,80,0.00,,,-99.99,,2013-01-29 07:01:00,
2013-01-29 00:11:00,5.0,0.0,-100.00,West,260,12.0,16.0,80,0.00,,,-99.99,,2013-01-29 07:11:00,
2013-01-29 00:21:00,5.0,1.0,-100.00,West,263,11.0,17.0,81,0.00,,,-99.99,,2013-01-29 07:21:00,
2013-01-29 00:31:00,5.0,0.0,-100.00,West,263,11.0,15.0,81,0.00,,,-99.99,,2013-01-29 07:31:00,
2013-01-29 00:51:00,5.0,1.0,-100.00,West,260,12.0,16.0,81,0.00,,,-99.99,,2013-01-29 07:51:00,
2013-01-29 01:01:00,6.0,1.0,-100.00,West,260,12.0,17.0,82,0.00,,,-99.99,,2013-01-29 08:01:00,
2013-01-29 01:11:00,6.0,1.0,-100.00,West,260,12.0,17.0,82,0.00,,,-99.99,,2013-01-29 08:11:00,
2013-01-29 01:21:00,5.0,2.0,-100.00,WSW,258,14.0,19.0,84,0.00,,,-99.99,,2013-01-29 08:21:00,
2013-01-29 01:31:00,6.0,2.0,-100.00,WSW,253,16.0,21.0,83,0.00,,,-99.99,,2013-01-29 08:31:00,
2013-01-29 01:41:00,6.0,2.0,-100.00,WSW,250,16.0,22.0,83,0.00,,,-99.99,,2013-01-29 08:41:00,
2013-01-29 01:51:00,6.0,2.0,-100.00,WSW,253,13.0,19.0,85,0.00,,,-99.99,,2013-01-29 08:51:00,
2013-01-29 02:01:00,5.0,2.0,-100.00,WSW,256,12.0,19.0,86,0.00,,,-99.99,,2013-01-29 09:01:00,
2013-01-29 02:11:00,6.0,2.0,-100.00,WSW,253,11.0,16.0,86,0.00,,,-99.99,,2013-01-29 09:11:00,
2013-01-29 02:21:00,6.0,3.0,-100.00,WSW,257,18.0,26.0,84,0.00,,,-99.99,,2013-01-29 09:21:00,
2013-01-29 02:31:00,6.0,3.0,-100.00,WSW,257,20.0,28.0,84,0.00,,,-99.99,,2013-01-29 09:31:00,
2013-01-29 02:42:00,-999.0,-99.9,-100.00,WSW,257,20.0,30.0,-999,-99.99,,,-99.99,,2013-01-29 09:42:00,
2013-01-29 02:51:00,7.0,4.0,-100.00,WSW,257,19.0,27.0,86,0.00,,,-99.99,,2013-01-29 09:51:00,
2013-01-29 03:01:00,6.0,4.0,-100.00,WSW,256,19.0,25.0,88,0.00,,,-99.99,,2013-01-29 10:01:00,
2013-01-29 03:11:00,7.0,4.0,-100.00,West,260,19.0,24.0,88,0.00,,,-99.99,,2013-01-29 10:11:00,
2013-01-29 03:21:00,7.0,4.0,-100.00,WSW,253,19.0,26.0,87,0.00,,,-99.99,,2013-01-29 10:21:00,
2013-01-29 03:32:00,7.0,4.0,-100.00,WSW,257,18.0,25.0,88,0.00,,,-99.99,,2013-01-29 10:32:00,
2013-01-29 03:41:00,7.0,4.0,-100.00,West,260,18.0,25.0,87,0.00,,,-99.99,,2013-01-29 10:41:00,
2013-01-29 03:51:00,7.0,3.0,-100.00,WSW,257,17.0,24.0,86,0.00,,,-99.99,,2013-01-29 10:51:00,
2013-01-29 04:01:00,7.0,3.0,-100.00,WSW,258,14.0,23.0,86,0.00,,,-99.99,,2013-01-29 11:01:00,
2013-01-29 04:11:00,7.0,3.0,-100.00,West,260,13.0,19.0,85,0.00,,,-99.99,,2013-01-29 11:11:00,
2013-01-29 04:21:00,6.0,3.0,-100.00,West,260,12.0,16.0,86,0.00,,,-99.99,,2013-01-29 11:21:00,
2013-01-29 04:31:00,6.0,3.0,-100.00,West,261,10.0,14.0,86,0.00,,,-99.99,,2013-01-29 11:31:00,
2013-01-29 04:41:00,6.0,2.0,-100.00,West,267,9.0,15.0,86,0.00,,,-99.99,,2013-01-29 11:41:00,
2013-01-29 04:52:00,6.0,3.0,-100.00,West,268,9.0,14.0,85,0.00,,,-99.99,,2013-01-29 11:52:00,
2013-01-29 05:02:00,6.0,3.0,-100.00,WSW,258,11.0,16.0,87,0.00,,,-99.99,,2013-01-29 12:02:00,
2013-01-29 05:11:00,6.0,3.0,-100.00,WSW,251,14.0,19.0,85,0.00,,,-99.99,,2013-01-29 12:11:00,
2013-01-29 05:21:00,7.0,3.0,-100.00,WSW,251,16.0,22.0,84,0.00,,,-99.99,,2013-01-29 12:21:00,
2013-01-29 05:32:00,6.0,3.0,-100.00,WSW,258,14.0,20.0,85,0.00,,,-99.99,,2013-01-29 12:32:00,
2013-01-29 05:42:00,6.0,3.0,-100.00,West,264,11.0,17.0,86,0.00,,,-99.99,,2013-01-29 12:42:00,
2013-01-29 05:52:00,6.0,3.0,-100.00,West,263,12.0,17.0,86,0.00,,,-99.99,,2013-01-29 12:52:00,
2013-01-29 06:01:00,6.0,2.0,-100.00,West,261,12.0,18.0,86,0.00,,,-99.99,,2013-01-29 13:01:00,
2013-01-29 06:11:00,5.0,2.0,-100.00,West,261,12.0,19.0,85,0.00,,,-99.99,,2013-01-29 13:11:00,
2013-01-29 06:22:00,5.0,2.0,-100.00,West,263,13.0,17.0,86,0.00,,,-99.99,,2013-01-29 13:22:00,
2013-01-29 06:31:00,5.0,2.0,-100.00,West,263,12.0,16.0,86,0.00,,,-99.99,,2013-01-29 13:31:00,
2013-01-29 06:42:00,5.0,2.0,-100.00,West,263,12.0,16.0,86,0.00,,,-99.99,,2013-01-29 13:42:00,
2013-01-29 06:52:00,6.0,2.0,-100.00,West,264,12.0,19.0,84,0.00,,,-99.99,,2013-01-29 13:52:00,
2013-01-29 07:01:00,5.0,2.0,-100.00,West,260,12.0,17.0,85,0.00,,,-99.99,,2013-01-29 14:01:00,
2013-01-29 07:11:00,5.0,1.0,-100.00,West,263,9.0,12.0,86,0.00,,,-99.99,,2013-01-29 14:11:00,
2013-01-29 07:21:00,5.0,1.0,-100.00,West,268,7.0,11.0,85,0.00,,,-99.99,,2013-01-29 14:21:00,
2013-01-29 07:32:00,5.0,1.0,-100.00,West,271,6.0,10.0,85,0.00,,,-99.99,,2013-01-29 14:32:00,
2013-01-29 07:42:00,5.0,2.0,-100.00,West,274,6.0,10.0,85,0.00,,,-99.99,,2013-01-29 14:42:00,
2013-01-29 07:52:00,5.0,1.0,-100.00,West,272,6.0,9.0,84,0.00,,,-99.99,,2013-01-29 14:52:00,
2013-01-29 08:01:00,5.0,1.0,-100.00,West,272,6.0,10.0,84,0.00,,,-99.99,,2013-01-29 15:01:00,
2013-01-29 08:11:00,5.0,1.0,-100.00,West,272,6.0,9.0,83,0.00,,,-99.99,,2013-01-29 15:11:00,
2013-01-29 08:21:00,6.0,2.0,-100.00,WNW,284,4.0,8.0,82,0.00,,,-99.99,,2013-01-29 15:21:00,
2013-01-29 08:32:00,6.0,2.0,-100.00,West,278,6.0,9.0,82,0.00,,,-99.99,,2013-01-29 15:32:00,
2013-01-29 08:42:00,6.0,2.0,-100.00,West,275,6.0,10.0,82,0.00,,,-99.99,,2013-01-29 15:42:00,
2013-01-29 08:52:00,6.0,2.0,-100.00,West,274,6.0,9.0,82,0.00,,,-99.99,,2013-01-29 15:52:00,
2013-01-29 09:03:00,-999.0,-99.9,-100.00,West,271,6.0,9.0,-999,-99.99,,,-99.99,,2013-01-29 16:03:00,
2013-01-29 09:13:00,-999.0,-99.9,-100.00,West,260,6.0,9.0,-999,-99.99,,,-99.99,,2013-01-29 16:13:00,
2013-01-29 09:21:00,8.0,3.0,-100.00,West,268,4.0,6.0,81,0.00,,,-99.99,,2013-01-29 16:21:00,
2013-01-29 09:31:00,9.0,4.0,-100.00,West,270,4.0,6.0,80,0.00,,,-99.99,,2013-01-29 16:31:00,
2013-01-29 09:42:00,9.0,4.0,-100.00,West,267,4.0,8.0,80,0.00,,,-99.99,,2013-01-29 16:42:00,
2013-01-29 09:53:00,-999.0,-99.9,-100.00,West,270,4.0,7.0,-999,-99.99,,,-99.99,,2013-01-29 16:53:00,
2013-01-29 10:02:00,9.0,4.0,-100.00,West,280,3.0,6.0,79,0.00,,,-99.99,,2013-01-29 17:02:00,
2013-01-29 10:11:00,9.0,4.0,-100.00,West,280,3.0,6.0,79,0.00,,,-99.99,,2013-01-29 17:11:00,
2013-01-29 10:21:00,8.0,5.0,-100.00,WNW,296,4.0,7.0,87,0.00,,,-99.99,,2013-01-29 17:21:00,
2013-01-29 10:31:00,8.0,5.0,-100.00,WNW,289,4.0,7.0,87,0.04,,,-99.99,,2013-01-29 17:31:00,
2013-01-29 10:41:00,9.0,6.0,-100.00,WNW,282,4.0,7.0,88,0.03,,,-99.99,,2013-01-29 17:41:00,
2013-01-29 10:52:00,10.0,6.0,-100.00,West,271,4.0,7.0,84,0.00,,,-99.99,,2013-01-29 17:52:00,
2013-01-29 11:01:00,10.0,6.0,-100.00,West,260,4.0,6.0,85,0.00,,,-99.99,,2013-01-29 18:01:00,
2013-01-29 11:11:00,9.0,5.0,-100.00,WSW,250,4.0,7.0,84,0.00,,,-99.99,,2013-01-29 18:11:00,
2013-01-29 11:21:00,11.0,7.0,-100.00,West,274,3.0,6.0,85,0.00,,,-99.99,,2013-01-29 18:21:00,
2013-01-29 11:33:00,11.0,6.0,-100.00,West,260,5.0,7.0,81,0.00,,,-99.99,,2013-01-29 18:33:00,
2013-01-29 11:41:00,12.0,6.0,-100.00,West,267,4.0,6.0,75,0.00,,,-99.99,,2013-01-29 18:41:00,
2013-01-29 11:51:00,12.0,6.0,-100.00,West,268,4.0,7.0,74,0.00,,,-99.99,,2013-01-29 18:51:00,
2013-01-29 12:01:00,12.0,6.0,-100.00,West,261,3.0,7.0,78,-99.99,,,-99.99,,2013-01-29 19:01:00,
2013-01-29 12:11:00,12.0,5.0,-100.00,West,267,2.0,4.0,75,0.00,,,-99.99,,2013-01-29 19:11:00,
2013-01-29 12:22:00,12.0,6.0,-100.00,NNW,339,1.0,2.0,77,0.00,,,-99.99,,2013-01-29 19:22:00,
2013-01-29 12:31:00,10.0,7.0,-100.00,NE,52,3.0,7.0,86,0.00,,,-99.99,,2013-01-29 19:31:00,
2013-01-29 12:41:00,10.0,7.0,-100.00,East,86,5.0,7.0,88,0.00,,,-99.99,,2013-01-29 19:41:00,
2013-01-29 12:51:00,9.0,6.0,-100.00,East,92,6.0,7.0,89,0.00,,,-99.99,,2013-01-29 19:51:00,
2013-01-29 13:01:00,8.0,6.0,-100.00,East,80,4.0,7.0,90,0.01,,,-99.99,,2013-01-29 20:01:00,
2013-01-29 13:11:00,8.0,6.0,-100.00,ENE,58,3.0,5.0,90,0.11,,,-99.99,,2013-01-29 20:11:00,
2013-01-29 13:21:00,8.0,6.0,-100.00,NNW,330,3.0,6.0,89,0.35,,,-99.99,,2013-01-29 20:21:00,
2013-01-29 13:32:00,8.0,6.0,-100.00,North,3,3.0,6.0,90,0.00,,,-99.99,,2013-01-29 20:32:00,
2013-01-29 13:41:00,8.0,6.0,-100.00,NE,49,6.0,8.0,90,0.00,,,-99.99,,2013-01-29 20:41:00,
2013-01-29 13:52:00,8.0,6.0,-100.00,NE,56,6.0,8.0,90,0.00,,,-99.99,,2013-01-29 20:52:00,
2013-01-29 14:01:00,8.0,6.0,-100.00,NE,54,6.0,7.0,90,0.00,,,-99.99,,2013-01-29 21:01:00,
2013-01-29 14:11:00,8.0,6.0,-100.00,ENE,59,7.0,9.0,90,0.00,,,-99.99,,2013-01-29 21:11:00,
2013-01-29 14:21:00,7.0,4.0,-100.00,NE,56,10.0,12.0,89,0.00,,,-99.99,,2013-01-29 21:21:00,
2013-01-29 14:32:00,6.0,4.0,-100.00,ENE,61,10.0,12.0,90,0.00,,,-99.99,,2013-01-29 21:32:00,
2013-01-29 14:41:00,6.0,4.0,-100.00,ENE,66,9.0,11.0,89,0.00,,,-99.99,,2013-01-29 21:41:00,
2013-01-29 14:52:00,6.0,3.0,-100.00,ENE,68,9.0,12.0,89,0.00,,,-99.99,,2013-01-29 21:52:00,
2013-01-29 15:01:00,5.0,3.0,-100.00,ENE,65,8.0,10.0,89,0.00,,,-99.99,,2013-01-29 22:01:00,
2013-01-29 15:11:00,5.0,3.0,-100.00,ENE,75,8.0,10.0,89,0.00,,,-99.99,,2013-01-29 22:11:00,
2013-01-29 15:21:00,5.0,3.0,-100.00,East,80,7.0,9.0,89,0.00,,,-99.99,,2013-01-29 22:21:00,
2013-01-29 15:32:00,5.0,3.0,-100.00,East,80,7.0,9.0,89,0.00,,,-99.99,,2013-01-29 22:32:00,
2013-01-29 15:41:00,5.0,2.0,-100.00,East,86,6.0,7.0,89,0.00,,,-99.99,,2013-01-29 22:41:00,
2013-01-29 15:52:00,5.0,2.0,-100.00,East,82,6.0,7.0,89,0.00,,,-99.99,,2013-01-29 22:52:00,
2013-01-29 16:01:00,5.0,2.0,-100.00,East,89,6.0,7.0,88,0.00,,,-99.99,,2013-01-29 23:01:00,
2013-01-29 16:11:00,5.0,2.0,-100.00,East,92,4.0,7.0,89,0.00,,,-99.99,,2013-01-29 23:11:00,
2013-01-29 16:21:00,5.0,3.0,-100.00,East,80,4.0,4.0,89,0.00,,,-99.99,,2013-01-29 23:21:00,
2013-01-29 16:31:00,5.0,3.0,-100.00,East,97,3.0,4.0,89,-99.99,,,-99.99,,2013-01-29 23:31:00,
2013-01-29 16:41:00,6.0,3.0,-100.00,East,93,4.0,5.0,89,0.00,,,-99.99,,2013-01-29 23:41:00,
2013-01-29 16:52:00,5.0,2.0,-100.00,East,90,2.0,4.0,88,0.00,,,-99.99,,2013-01-29 23:52:00,
2013-01-29 17:02:00,5.0,2.0,-100.00,East,79,2.0,3.0,88,0.00,,,-99.99,,2013-01-30 00:02:00,
2013-01-29 17:11:00,4.0,1.0,-100.00,ENE,72,1.0,3.0,88,0.00,,,-99.99,,2013-01-30 00:11:00,
2013-01-29 17:21:00,6.0,4.0,-100.00,WSW,248,2.0,4.0,90,0.00,,,-99.99,,2013-01-30 00:21:00,
2013-01-29 17:31:00,6.0,3.0,-100.00,West,264,4.0,4.0,88,0.00,,,-99.99,,2013-01-30 00:31:00,
2013-01-29 17:52:00,5.0,2.0,-100.00,West,261,4.0,7.0,88,0.00,,,-99.99,,2013-01-30 00:52:00,
2013-01-29 18:01:00,5.0,2.0,-100.00,West,265,4.0,6.0,89,0.00,,,-99.99,,2013-01-30 01:01:00,
2013-01-29 18:11:00,5.0,3.0,-100.00,West,265,4.0,9.0,90,0.00,,,-99.99,,2013-01-30 01:11:00,
2013-01-29 18:22:00,5.0,2.0,-100.00,WSW,258,5.0,6.0,89,0.00,,,-99.99,,2013-01-30 01:22:00,
2013-01-29 18:31:00,5.0,3.0,-100.00,West,263,5.0,7.0,89,0.00,,,-99.99,,2013-01-30 01:31:00,
2013-01-29 18:42:00,5.0,3.0,-100.00,West,260,5.0,6.0,89,0.00,,,-99.99,,2013-01-30 01:42:00,
2013-01-29 18:51:00,5.0,3.0,-100.00,WSW,258,5.0,7.0,88,0.00,,,-99.99,,2013-01-30 01:51:00,
2013-01-29 19:01:00,5.0,2.0,-100.00,West,261,5.0,6.0,89,0.00,,,-99.99,,2013-01-30 02:01:00,
2013-01-29 19:11:00,4.0,1.0,-100.00,West,264,3.0,6.0,88,0.00,,,-99.99,,2013-01-30 02:11:00,
2013-01-29 19:21:00,4.0,1.0,-100.00,West,265,2.0,4.0,88,0.00,,,-99.99,,2013-01-30 02:21:00,
2013-01-29 19:32:00,4.0,1.0,-100.00,West,267,3.0,4.0,88,0.00,,,-99.99,,2013-01-30 02:32:00,
2013-01-29 19:41:00,4.0,1.0,-100.00,West,265,3.0,4.0,88,0.00,,,-99.99,,2013-01-30 02:41:00,
2013-01-29 19:52:00,4.0,1.0,-100.00,West,264,3.0,6.0,89,0.00,,,-99.99,,2013-01-30 02:52:00,
2013-01-29 20:02:00,4.0,1.0,-100.00,West,268,4.0,6.0,88,0.00,,,-99.99,,2013-01-30 03:02:00,
2013-01-29 20:11:00,4.0,1.0,-100.00,West,268,4.0,6.0,88,0.00,,,-99.99,,2013-01-30 03:11:00,
2013-01-29 20:21:00,4.0,1.0,-100.00,West,265,6.0,11.0,89,0.00,,,-99.99,,2013-01-30 03:21:00,
2013-01-29 20:31:00,4.0,1.0,-100.00,WSW,256,9.0,12.0,88,0.00,,,-99.99,,2013-01-30 03:31:00,
2013-01-29 20:51:00,3.0,0.0,-100.00,West,264,6.0,10.0,87,0.00,,,-99.99,,2013-01-30 03:51:00,
2013-01-29 21:01:00,4.0,1.0,-100.00,West,261,9.0,12.0,88,0.00,,,-99.99,,2013-01-30 04:01:00,
2013-01-29 21:11:00,3.0,0.0,-100.00,West,263,8.0,12.0,87,0.00,,,-99.99,,2013-01-30 04:11:00,
2013-01-29 21:21:00,4.0,1.0,-100.00,West,263,8.0,12.0,88,0.00,,,-99.99,,2013-01-30 04:21:00,
2013-01-29 21:31:00,4.0,1.0,-100.00,West,264,8.0,12.0,87,0.00,,,-99.99,,2013-01-30 04:31:00,
2013-01-29 21:51:00,5.0,1.0,-100.00,West,263,9.0,16.0,86,0.00,,,-99.99,,2013-01-30 04:51:00,
2013-01-29 22:11:00,5.0,1.0,-100.00,West,260,9.0,13.0,86,0.00,,,-99.99,,2013-01-30 05:11:00,
2013-01-29 22:21:00,5.0,1.0,-100.00,West,263,10.0,16.0,86,0.00,,,-99.99,,2013-01-30 05:21:00,
2013-01-29 22:31:00,5.0,1.0,-100.00,West,260,11.0,17.0,85,0.00,,,-99.99,,2013-01-30 05:31:00,
2013-01-29 22:42:00,6.0,2.0,-100.00,WSW,251,17.0,24.0,85,0.00,,,-99.99,,2013-01-30 05:42:00,
2013-01-29 22:51:00,6.0,3.0,-100.00,WSW,253,20.0,27.0,85,0.00,,,-99.99,,2013-01-30 05:51:00,
2013-01-29 23:01:00,6.0,3.0,-100.00,WSW,256,20.0,26.0,85,0.00,,,-99.99,,2013-01-30 06:01:00,
2013-01-29 23:11:00,6.0,3.0,-100.00,WSW,253,21.0,26.0,86,0.00,,,-99.99,,2013-01-30 06:11:00,
2013-01-29 23:21:00,7.0,4.0,-100.00,WSW,254,20.0,26.0,87,0.00,,,-99.99,,2013-01-30 06:21:00,
2013-01-29 23:31:00,6.0,4.0,-100.00,WSW,256,18.0,23.0,87,0.00,,,-99.99,,2013-01-30 06:31:00,
2013-01-29 23:41:00,7.0,4.0,-100.00,WSW,254,20.0,27.0,86,0.00,,,-99.99,,2013-01-30 06:41:00,
2013-01-29 23:51:00,7.0,4.0,-100.00,WSW,253,21.0,29.0,86,0.00,,,-99.99,,2013-01-30 06:51:00,